Year,Month,Day,Hour,Minute,Value (Times are PST for temperature in C)
2015,07,19,00,00,24.20
2015,07,19,00,01,24.20
2015,07,19,00,02,24.20
2015,07,19,00,03,24.10
2015,07,19,00,04,24.10
2015,07,19,00,05,24.10
2015,07,19,00,06,24.10
2015,07,19,00,07,24.10
2015,07,19,00,08,24.00
2015,07,19,00,09,24.00
2015,07,19,00,10,24.00
2015,07,19,00,11,24.00
2015,07,19,00,12,24.00
2015,07,19,00,13,23.90
2015,07,19,00,14,23.90
2015,07,19,00,15,23.90
2015,07,19,00,16,23.90
2015,07,19,00,17,23.90
2015,07,19,00,18,23.90
2015,07,19,00,19,23.90
2015,07,19,00,20,23.90
2015,07,19,00,21,23.90
2015,07,19,00,22,23.90
2015,07,19,00,23,23.90
2015,07,19,00,24,23.90
2015,07,19,00,25,23.90
2015,07,19,00,26,23.90
2015,07,19,00,27,23.90
2015,07,19,00,28,23.80
2015,07,19,00,29,23.80
2015,07,19,00,30,23.80
2015,07,19,00,31,23.80
2015,07,19,00,32,23.80
2015,07,19,00,33,23.80
2015,07,19,00,34,23.80
2015,07,19,00,35,23.80
2015,07,19,00,36,23.80
2015,07,19,00,37,23.80
2015,07,19,00,38,23.80
2015,07,19,00,39,23.80
2015,07,19,00,40,23.80
2015,07,19,00,41,23.80
2015,07,19,00,42,23.80
2015,07,19,00,43,23.70
2015,07,19,00,44,23.70
2015,07,19,00,45,23.70
2015,07,19,00,46,23.80
2015,07,19,00,47,23.70
2015,07,19,00,48,23.70
2015,07,19,00,49,23.70
2015,07,19,00,50,23.70
2015,07,19,00,51,23.70
2015,07,19,00,52,23.70
2015,07,19,00,53,23.70
2015,07,19,00,54,23.70
2015,07,19,00,55,23.70
2015,07,19,00,56,23.70
2015,07,19,00,57,23.60
2015,07,19,00,58,23.60
2015,07,19,00,59,23.60
2015,07,19,01,00,23.60
2015,07,19,01,01,23.50
2015,07,19,01,02,23.50
2015,07,19,01,03,23.50
2015,07,19,01,04,23.40
2015,07,19,01,05,23.40
2015,07,19,01,06,23.40
2015,07,19,01,07,23.40
2015,07,19,01,08,23.30
2015,07,19,01,09,23.30
2015,07,19,01,10,23.30
2015,07,19,01,11,23.30
2015,07,19,01,12,23.30
2015,07,19,01,13,23.30
2015,07,19,01,14,23.30
2015,07,19,01,15,23.30
2015,07,19,01,16,23.20
2015,07,19,01,17,23.20
2015,07,19,01,18,23.20
2015,07,19,01,19,23.20
2015,07,19,01,20,23.20
2015,07,19,01,21,23.20
2015,07,19,01,22,23.10
2015,07,19,01,23,23.10
2015,07,19,01,24,23.10
2015,07,19,01,25,23.10
2015,07,19,01,26,23.00
2015,07,19,01,27,23.00
2015,07,19,01,28,22.90
2015,07,19,01,29,22.90
2015,07,19,01,30,22.90
2015,07,19,01,31,22.90
2015,07,19,01,32,22.90
2015,07,19,01,33,22.80
2015,07,19,01,34,22.80
2015,07,19,01,35,22.80
2015,07,19,01,36,22.80
2015,07,19,01,37,22.80
2015,07,19,01,38,22.80
2015,07,19,01,39,22.70
2015,07,19,01,40,22.70
2015,07,19,01,41,22.70
2015,07,19,01,42,22.70
2015,07,19,01,43,22.70
2015,07,19,01,44,22.70
2015,07,19,01,45,22.70
2015,07,19,01,46,22.70
2015,07,19,01,47,22.70
2015,07,19,01,48,22.70
2015,07,19,01,49,22.80
2015,07,19,01,50,22.80
2015,07,19,01,51,22.80
2015,07,19,01,52,22.80
2015,07,19,01,53,22.80
2015,07,19,01,54,22.80
2015,07,19,01,55,22.90
2015,07,19,01,56,22.90
2015,07,19,01,57,22.90
2015,07,19,01,58,22.90
2015,07,19,01,59,22.90
2015,07,19,02,00,22.90
2015,07,19,02,01,22.90
2015,07,19,02,02,22.80
2015,07,19,02,03,22.80
2015,07,19,02,04,22.70
2015,07,19,02,05,22.70
2015,07,19,02,06,22.70
2015,07,19,02,07,22.70
2015,07,19,02,08,22.70
2015,07,19,02,09,22.70
2015,07,19,02,10,22.70
2015,07,19,02,11,22.70
2015,07,19,02,12,22.70
2015,07,19,02,13,22.80
2015,07,19,02,14,22.80
2015,07,19,02,15,22.80
2015,07,19,02,16,22.80
2015,07,19,02,17,22.80
2015,07,19,02,18,22.80
2015,07,19,02,19,22.80
2015,07,19,02,20,22.70
2015,07,19,02,21,22.70
2015,07,19,02,22,22.70
2015,07,19,02,23,22.70
2015,07,19,02,24,22.70
2015,07,19,02,25,22.70
2015,07,19,02,26,22.70
2015,07,19,02,27,22.60
2015,07,19,02,28,22.60
2015,07,19,02,29,22.60
2015,07,19,02,30,22.60
2015,07,19,02,31,22.60
2015,07,19,02,32,22.60
2015,07,19,02,33,22.60
2015,07,19,02,34,22.60
2015,07,19,02,35,22.60
2015,07,19,02,36,22.60
2015,07,19,02,37,22.70
2015,07,19,02,38,22.70
2015,07,19,02,39,22.70
2015,07,19,02,40,22.80
2015,07,19,02,41,22.80
2015,07,19,02,42,22.90
2015,07,19,02,43,23.00
2015,07,19,02,44,23.10
2015,07,19,02,45,23.20
2015,07,19,02,46,23.20
2015,07,19,02,47,23.20
2015,07,19,02,48,23.30
2015,07,19,02,49,23.30
2015,07,19,02,50,23.30
2015,07,19,02,51,23.30
2015,07,19,02,52,23.30
2015,07,19,02,53,23.30
2015,07,19,02,54,23.30
2015,07,19,02,55,23.30
2015,07,19,02,56,23.40
2015,07,19,02,57,23.40
2015,07,19,02,58,23.40
2015,07,19,02,59,23.40
2015,07,19,03,00,23.30
2015,07,19,03,01,23.30
2015,07,19,03,02,23.30
2015,07,19,03,03,23.30
2015,07,19,03,04,23.30
2015,07,19,03,05,23.30
2015,07,19,03,06,23.30
2015,07,19,03,07,23.30
2015,07,19,03,08,23.20
2015,07,19,03,09,23.20
2015,07,19,03,10,23.20
2015,07,19,03,11,23.20
2015,07,19,03,12,23.20
2015,07,19,03,13,23.10
2015,07,19,03,14,23.10
2015,07,19,03,15,23.10
2015,07,19,03,16,23.10
2015,07,19,03,17,23.10
2015,07,19,03,18,23.10
2015,07,19,03,19,23.00
2015,07,19,03,20,23.00
2015,07,19,03,21,23.00
2015,07,19,03,22,22.90
2015,07,19,03,23,22.90
2015,07,19,03,24,22.90
2015,07,19,03,25,22.90
2015,07,19,03,26,22.90
2015,07,19,03,27,22.90
2015,07,19,03,28,22.90
2015,07,19,03,29,22.90
2015,07,19,03,30,22.80
2015,07,19,03,31,22.80
2015,07,19,03,32,22.80
2015,07,19,03,33,22.80
2015,07,19,03,34,22.80
2015,07,19,03,35,22.80
2015,07,19,03,36,22.70
2015,07,19,03,37,22.70
2015,07,19,03,38,22.70
2015,07,19,03,39,22.70
2015,07,19,03,40,22.70
2015,07,19,03,41,22.60
2015,07,19,03,42,22.60
2015,07,19,03,43,22.60
2015,07,19,03,44,22.50
2015,07,19,03,45,22.50
2015,07,19,03,46,22.50
2015,07,19,03,47,22.50
2015,07,19,03,48,22.40
2015,07,19,03,49,22.40
2015,07,19,03,50,22.40
2015,07,19,03,51,22.30
2015,07,19,03,52,22.30
2015,07,19,03,53,22.30
2015,07,19,03,54,22.30
2015,07,19,03,55,22.20
2015,07,19,03,56,22.20
2015,07,19,03,57,22.20
2015,07,19,03,58,22.20
2015,07,19,03,59,22.20
2015,07,19,04,00,22.20
2015,07,19,04,01,22.20
2015,07,19,04,02,22.20
2015,07,19,04,03,22.10
2015,07,19,04,04,22.20
2015,07,19,04,05,22.10
2015,07,19,04,06,22.20
2015,07,19,04,07,22.10
2015,07,19,04,08,22.10
2015,07,19,04,09,22.10
2015,07,19,04,10,22.10
2015,07,19,04,11,22.10
2015,07,19,04,12,22.10
2015,07,19,04,13,22.10
2015,07,19,04,14,22.00
2015,07,19,04,15,22.00
2015,07,19,04,16,22.00
2015,07,19,04,17,22.00
2015,07,19,04,18,22.00
2015,07,19,04,19,22.00
2015,07,19,04,20,22.00
2015,07,19,04,21,22.00
2015,07,19,04,22,21.90
2015,07,19,04,23,21.90
2015,07,19,04,24,21.90
2015,07,19,04,25,22.00
2015,07,19,04,26,22.00
2015,07,19,04,27,22.00
2015,07,19,04,28,22.00
2015,07,19,04,29,22.00
2015,07,19,04,30,21.90
2015,07,19,04,31,21.90
2015,07,19,04,32,21.90
2015,07,19,04,33,21.90
2015,07,19,04,34,21.90
2015,07,19,04,35,21.90
2015,07,19,04,36,21.90
2015,07,19,04,37,21.90
2015,07,19,04,38,21.90
2015,07,19,04,39,21.90
2015,07,19,04,40,21.90
2015,07,19,04,41,21.90
2015,07,19,04,42,21.90
2015,07,19,04,43,21.90
2015,07,19,04,44,21.90
2015,07,19,04,45,21.90
2015,07,19,04,46,21.80
2015,07,19,04,47,21.80
2015,07,19,04,48,21.70
2015,07,19,04,49,21.70
2015,07,19,04,50,21.70
2015,07,19,04,51,21.70
2015,07,19,04,52,21.60
2015,07,19,04,53,21.60
2015,07,19,04,54,21.60
2015,07,19,04,55,21.50
2015,07,19,04,56,21.50
2015,07,19,04,57,21.50
2015,07,19,04,58,21.50
2015,07,19,04,59,21.50
2015,07,19,05,00,21.40
2015,07,19,05,01,21.40
2015,07,19,05,02,21.40
2015,07,19,05,03,21.40
2015,07,19,05,04,21.40
2015,07,19,05,05,21.40
2015,07,19,05,06,21.40
2015,07,19,05,07,21.30
2015,07,19,05,08,21.30
2015,07,19,05,09,21.40
2015,07,19,05,10,21.40
2015,07,19,05,11,21.40
2015,07,19,05,12,21.40
2015,07,19,05,13,21.40
2015,07,19,05,14,21.40
2015,07,19,05,15,21.40
2015,07,19,05,16,21.30
2015,07,19,05,17,21.30
2015,07,19,05,18,21.40
2015,07,19,05,19,21.40
2015,07,19,05,20,21.40
2015,07,19,05,21,21.40
2015,07,19,05,22,21.40
2015,07,19,05,23,21.40
2015,07,19,05,24,21.40
2015,07,19,05,25,21.50
2015,07,19,05,26,21.50
2015,07,19,05,27,21.50
2015,07,19,05,28,21.50
2015,07,19,05,29,21.50
2015,07,19,05,30,21.50
2015,07,19,05,31,21.40
2015,07,19,05,32,21.40
2015,07,19,05,33,21.40
2015,07,19,05,34,21.40
2015,07,19,05,35,21.40
2015,07,19,05,36,21.40
2015,07,19,05,37,21.30
2015,07,19,05,38,21.30
2015,07,19,05,39,21.30
2015,07,19,05,40,21.30
2015,07,19,05,41,21.40
2015,07,19,05,42,21.40
2015,07,19,05,43,21.40
2015,07,19,05,44,21.40
2015,07,19,05,45,21.50
2015,07,19,05,46,21.50
2015,07,19,05,47,21.60
2015,07,19,05,48,21.60
2015,07,19,05,49,21.60
2015,07,19,05,50,21.60
2015,07,19,05,51,21.70
2015,07,19,05,52,21.70
2015,07,19,05,53,21.70
2015,07,19,05,54,21.70
2015,07,19,05,55,21.70
2015,07,19,05,56,21.70
2015,07,19,05,57,21.70
2015,07,19,05,58,21.70
2015,07,19,05,59,21.70
2015,07,19,06,00,21.80
2015,07,19,06,01,21.80
2015,07,19,06,02,21.80
2015,07,19,06,03,21.80
2015,07,19,06,04,21.70
2015,07,19,06,05,21.70
2015,07,19,06,06,21.70
2015,07,19,06,07,21.70
2015,07,19,06,08,21.70
2015,07,19,06,09,21.70
2015,07,19,06,10,21.70
2015,07,19,06,11,21.70
2015,07,19,06,12,21.80
2015,07,19,06,13,21.80
2015,07,19,06,14,21.80
2015,07,19,06,15,21.80
2015,07,19,06,16,21.80
2015,07,19,06,17,21.80
2015,07,19,06,18,21.80
2015,07,19,06,19,21.80
2015,07,19,06,20,21.80
2015,07,19,06,21,21.80
2015,07,19,06,22,21.80
2015,07,19,06,23,21.80
2015,07,19,06,24,21.80
2015,07,19,06,25,21.80
2015,07,19,06,26,21.80
2015,07,19,06,27,21.80
2015,07,19,06,28,21.80
2015,07,19,06,29,21.80
2015,07,19,06,30,21.80
2015,07,19,06,31,21.80
2015,07,19,06,32,21.80
2015,07,19,06,33,21.80
2015,07,19,06,34,21.80
2015,07,19,06,35,21.80
2015,07,19,06,36,21.90
2015,07,19,06,37,21.90
2015,07,19,06,38,21.90
2015,07,19,06,39,21.90
2015,07,19,06,40,21.90
2015,07,19,06,41,22.00
2015,07,19,06,42,22.00
2015,07,19,06,43,22.10
2015,07,19,06,44,22.10
2015,07,19,06,45,22.10
2015,07,19,06,46,22.20
2015,07,19,06,47,22.20
2015,07,19,06,48,22.30
2015,07,19,06,49,22.30
2015,07,19,06,50,22.30
2015,07,19,06,51,22.30
2015,07,19,06,52,22.30
2015,07,19,06,53,22.40
2015,07,19,06,54,22.40
2015,07,19,06,55,22.40
2015,07,19,06,56,22.40
2015,07,19,06,57,22.40
2015,07,19,06,58,22.40
2015,07,19,06,59,22.50
2015,07,19,07,00,22.50
2015,07,19,07,01,22.50
2015,07,19,07,02,22.50
2015,07,19,07,03,22.50
2015,07,19,07,04,22.60
2015,07,19,07,05,22.60
2015,07,19,07,06,22.60
2015,07,19,07,07,22.60
2015,07,19,07,08,22.60
2015,07,19,07,09,22.70
2015,07,19,07,10,22.70
2015,07,19,07,11,22.70
2015,07,19,07,12,22.70
2015,07,19,07,13,22.70
2015,07,19,07,14,22.70
2015,07,19,07,15,22.70
2015,07,19,07,16,22.80
2015,07,19,07,17,22.80
2015,07,19,07,18,22.80
2015,07,19,07,19,22.80
2015,07,19,07,20,22.80
2015,07,19,07,21,22.80
2015,07,19,07,22,22.80
2015,07,19,07,23,22.80
2015,07,19,07,24,22.80
2015,07,19,07,25,22.80
2015,07,19,07,26,22.80
2015,07,19,07,27,22.90
2015,07,19,07,28,22.90
2015,07,19,07,29,22.90
2015,07,19,07,30,22.90
2015,07,19,07,31,23.00
2015,07,19,07,32,23.00
2015,07,19,07,33,23.00
2015,07,19,07,34,23.10
2015,07,19,07,35,23.10
2015,07,19,07,36,23.10
2015,07,19,07,37,23.10
2015,07,19,07,38,23.10
2015,07,19,07,39,23.10
2015,07,19,07,40,23.10
2015,07,19,07,41,23.10
2015,07,19,07,42,23.10
2015,07,19,07,43,23.20
2015,07,19,07,44,23.20
2015,07,19,07,45,23.20
2015,07,19,07,46,23.20
2015,07,19,07,47,23.20
2015,07,19,07,48,23.30
2015,07,19,07,49,23.30
2015,07,19,07,50,23.30
2015,07,19,07,51,23.30
2015,07,19,07,52,23.30
2015,07,19,07,53,23.30
2015,07,19,07,54,23.30
2015,07,19,07,55,23.30
2015,07,19,07,56,23.30
2015,07,19,07,57,23.30
2015,07,19,07,58,23.40
2015,07,19,07,59,23.40
2015,07,19,08,00,23.50
2015,07,19,08,01,23.50
2015,07,19,08,02,23.50
2015,07,19,08,03,23.50
2015,07,19,08,04,23.60
2015,07,19,08,05,23.60
2015,07,19,08,06,23.60
2015,07,19,08,07,23.60
2015,07,19,08,08,23.70
2015,07,19,08,09,23.70
2015,07,19,08,10,23.70
2015,07,19,08,11,23.70
2015,07,19,08,12,23.80
2015,07,19,08,13,23.80
2015,07,19,08,14,23.80
2015,07,19,08,15,23.90
2015,07,19,08,16,23.90
2015,07,19,08,17,23.90
2015,07,19,08,18,23.90
2015,07,19,08,19,23.90
2015,07,19,08,20,24.00
2015,07,19,08,21,24.00
2015,07,19,08,22,24.10
2015,07,19,08,23,24.10
2015,07,19,08,24,24.10
2015,07,19,08,25,24.10
2015,07,19,08,26,24.10
2015,07,19,08,27,24.10
2015,07,19,08,28,24.00
2015,07,19,08,29,24.00
2015,07,19,08,30,23.90
2015,07,19,08,31,23.90
2015,07,19,08,32,23.90
2015,07,19,08,33,23.80
2015,07,19,08,34,23.80
2015,07,19,08,35,23.80
2015,07,19,08,36,23.80
2015,07,19,08,37,23.80
2015,07,19,08,38,23.80
2015,07,19,08,39,23.80
2015,07,19,08,40,23.70
2015,07,19,08,41,23.70
2015,07,19,08,42,23.70
2015,07,19,08,43,23.70
2015,07,19,08,44,23.80
2015,07,19,08,45,23.80
2015,07,19,08,46,23.90
2015,07,19,08,47,24.00
2015,07,19,08,48,24.00
2015,07,19,08,49,24.10
2015,07,19,08,50,24.10
2015,07,19,08,51,24.10
2015,07,19,08,52,24.10
2015,07,19,08,53,24.10
2015,07,19,08,54,24.20
2015,07,19,08,55,24.30
2015,07,19,08,56,24.30
2015,07,19,08,57,24.40
2015,07,19,08,58,24.40
2015,07,19,08,59,24.40
2015,07,19,09,00,24.40
2015,07,19,09,01,24.40
2015,07,19,09,02,24.50
2015,07,19,09,03,24.50
2015,07,19,09,04,24.50
2015,07,19,09,05,24.50
2015,07,19,09,06,24.50
2015,07,19,09,07,24.50
2015,07,19,09,08,24.60
2015,07,19,09,09,24.50
2015,07,19,09,10,24.50
2015,07,19,09,11,24.50
2015,07,19,09,12,24.50
2015,07,19,09,13,24.40
2015,07,19,09,14,24.40
2015,07,19,09,15,24.40
2015,07,19,09,16,24.40
2015,07,19,09,17,24.40
2015,07,19,09,18,24.50
2015,07,19,09,19,24.50
2015,07,19,09,20,24.60
2015,07,19,09,21,24.60
2015,07,19,09,22,24.70
2015,07,19,09,23,24.70
2015,07,19,09,24,24.70
2015,07,19,09,25,24.70
2015,07,19,09,26,24.70
2015,07,19,09,27,24.70
2015,07,19,09,28,24.80
2015,07,19,09,29,24.80
2015,07,19,09,30,24.80
2015,07,19,09,31,24.90
2015,07,19,09,32,24.80
2015,07,19,09,33,24.90
2015,07,19,09,34,24.90
2015,07,19,09,35,24.80
2015,07,19,09,36,24.90
2015,07,19,09,37,24.90
2015,07,19,09,38,24.90
2015,07,19,09,39,24.90
2015,07,19,09,40,24.90
2015,07,19,09,41,25.00
2015,07,19,09,42,25.00
2015,07,19,09,43,25.00
2015,07,19,09,44,25.10
2015,07,19,09,45,25.10
2015,07,19,09,46,25.00
2015,07,19,09,47,25.00
2015,07,19,09,48,25.00
2015,07,19,09,49,25.00
2015,07,19,09,50,25.10
2015,07,19,09,51,25.10
2015,07,19,09,52,25.20
2015,07,19,09,53,25.20
2015,07,19,09,54,25.20
2015,07,19,09,55,25.20
2015,07,19,09,56,25.30
2015,07,19,09,57,25.30
2015,07,19,09,58,25.30
2015,07,19,09,59,25.30
2015,07,19,10,00,25.20
2015,07,19,10,01,25.20
2015,07,19,10,02,25.30
2015,07,19,10,03,25.30
2015,07,19,10,04,25.30
2015,07,19,10,05,25.40
2015,07,19,10,06,25.40
2015,07,19,10,07,25.40
2015,07,19,10,08,25.40
2015,07,19,10,09,25.50
2015,07,19,10,10,25.50
2015,07,19,10,11,25.60
2015,07,19,10,12,25.60
2015,07,19,10,13,25.60
2015,07,19,10,14,25.60
2015,07,19,10,15,25.60
2015,07,19,10,16,25.60
2015,07,19,10,17,25.60
2015,07,19,10,18,25.60
2015,07,19,10,19,25.60
2015,07,19,10,20,25.60
2015,07,19,10,21,25.70
2015,07,19,10,22,25.70
2015,07,19,10,23,25.80
2015,07,19,10,24,25.80
2015,07,19,10,25,25.80
2015,07,19,10,26,25.80
2015,07,19,10,27,25.80
2015,07,19,10,28,25.70
2015,07,19,10,29,25.60
2015,07,19,10,30,25.50
2015,07,19,10,31,25.40
2015,07,19,10,32,25.30
2015,07,19,10,33,25.20
2015,07,19,10,34,25.20
2015,07,19,10,35,25.20
2015,07,19,10,36,25.20
2015,07,19,10,37,25.20
2015,07,19,10,38,25.30
2015,07,19,10,39,25.40
2015,07,19,10,40,25.50
2015,07,19,10,41,25.60
2015,07,19,10,42,25.60
2015,07,19,10,43,25.60
2015,07,19,10,44,25.60
2015,07,19,10,45,25.60
2015,07,19,10,46,25.70
2015,07,19,10,47,25.70
2015,07,19,10,48,25.80
2015,07,19,10,49,25.80
2015,07,19,10,50,25.70
2015,07,19,10,51,25.60
2015,07,19,10,52,25.60
2015,07,19,10,53,25.50
2015,07,19,10,54,25.50
2015,07,19,10,55,25.60
2015,07,19,10,56,25.70
2015,07,19,10,57,25.80
2015,07,19,10,58,25.90
2015,07,19,10,59,25.90
2015,07,19,11,00,25.90
2015,07,19,11,01,26.00
2015,07,19,11,02,26.00
2015,07,19,11,03,26.00
2015,07,19,11,04,25.90
2015,07,19,11,05,25.90
2015,07,19,11,06,25.90
2015,07,19,11,07,25.90
2015,07,19,11,08,25.90
2015,07,19,11,09,26.10
2015,07,19,11,10,26.20
2015,07,19,11,11,26.20
2015,07,19,11,12,26.20
2015,07,19,11,13,26.20
2015,07,19,11,14,26.30
2015,07,19,11,15,26.30
2015,07,19,11,16,26.30
2015,07,19,11,17,26.40
2015,07,19,11,18,26.40
2015,07,19,11,19,26.40
2015,07,19,11,20,26.40
2015,07,19,11,21,26.40
2015,07,19,11,22,26.30
2015,07,19,11,23,26.40
2015,07,19,11,24,26.50
2015,07,19,11,25,26.60
2015,07,19,11,26,26.70
2015,07,19,11,27,26.80
2015,07,19,11,28,26.80
2015,07,19,11,29,26.90
2015,07,19,11,30,26.90
2015,07,19,11,31,27.00
2015,07,19,11,32,27.00
2015,07,19,11,33,27.00
2015,07,19,11,34,27.10
2015,07,19,11,35,27.10
2015,07,19,11,36,27.10
2015,07,19,11,37,27.10
2015,07,19,11,38,27.00
2015,07,19,11,39,27.00
2015,07,19,11,40,27.10
2015,07,19,11,41,27.10
2015,07,19,11,42,27.20
2015,07,19,11,43,27.20
2015,07,19,11,44,27.30
2015,07,19,11,45,27.30
2015,07,19,11,46,27.30
2015,07,19,11,47,27.30
2015,07,19,11,48,27.30
2015,07,19,11,49,27.20
2015,07,19,11,50,27.20
2015,07,19,11,51,27.20
2015,07,19,11,52,27.20
2015,07,19,11,53,27.30
2015,07,19,11,54,27.30
2015,07,19,11,55,27.30
2015,07,19,11,56,27.40
2015,07,19,11,57,27.40
2015,07,19,11,58,27.40
2015,07,19,11,59,27.40
2015,07,19,12,00,27.40
2015,07,19,12,01,27.50
2015,07,19,12,02,27.50
2015,07,19,12,03,27.60
2015,07,19,12,04,27.60
2015,07,19,12,05,27.60
2015,07,19,12,06,27.70
2015,07,19,12,07,27.70
2015,07,19,12,08,27.50
2015,07,19,12,09,27.40
2015,07,19,12,10,27.40
2015,07,19,12,11,27.40
2015,07,19,12,12,27.40
2015,07,19,12,13,27.40
2015,07,19,12,14,27.40
2015,07,19,12,15,27.40
2015,07,19,12,16,27.40
2015,07,19,12,17,27.30
2015,07,19,12,18,27.30
2015,07,19,12,19,27.40
2015,07,19,12,20,27.40
2015,07,19,12,21,27.40
2015,07,19,12,22,27.40
2015,07,19,12,23,27.50
2015,07,19,12,24,27.50
2015,07,19,12,25,27.60
2015,07,19,12,26,27.70
2015,07,19,12,27,27.70
2015,07,19,12,28,27.70
2015,07,19,12,29,27.80
2015,07,19,12,30,27.80
2015,07,19,12,31,28.00
2015,07,19,12,32,28.10
2015,07,19,12,33,28.20
2015,07,19,12,34,28.20
2015,07,19,12,35,28.20
2015,07,19,12,36,28.30
2015,07,19,12,37,28.30
2015,07,19,12,38,28.40
2015,07,19,12,39,28.40
2015,07,19,12,40,28.40
2015,07,19,12,41,28.40
2015,07,19,12,42,28.40
2015,07,19,12,43,28.40
2015,07,19,12,44,28.30
2015,07,19,12,45,28.30
2015,07,19,12,46,28.30
2015,07,19,12,47,28.30
2015,07,19,12,48,28.30
2015,07,19,12,49,28.30
2015,07,19,12,50,28.20
2015,07,19,12,51,28.20
2015,07,19,12,52,28.20
2015,07,19,12,53,28.20
2015,07,19,12,54,28.20
2015,07,19,12,55,28.30
2015,07,19,12,56,28.20
2015,07,19,12,57,28.10
2015,07,19,12,58,28.00
2015,07,19,12,59,28.10
2015,07,19,13,00,28.10
2015,07,19,13,01,28.10
2015,07,19,13,02,28.20
2015,07,19,13,03,28.30
2015,07,19,13,04,28.30
2015,07,19,13,05,28.30
2015,07,19,13,06,28.40
2015,07,19,13,07,28.40
2015,07,19,13,08,28.40
2015,07,19,13,09,28.50
2015,07,19,13,10,28.50
2015,07,19,13,11,28.60
2015,07,19,13,12,28.60
2015,07,19,13,13,28.60
2015,07,19,13,14,28.40
2015,07,19,13,15,28.30
2015,07,19,13,16,28.20
2015,07,19,13,17,28.10
2015,07,19,13,18,28.10
2015,07,19,13,19,28.10
2015,07,19,13,20,28.10
2015,07,19,13,21,28.10
2015,07,19,13,22,28.10
2015,07,19,13,23,28.10
2015,07,19,13,24,28.10
2015,07,19,13,25,28.10
2015,07,19,13,26,28.10
2015,07,19,13,27,28.10
2015,07,19,13,28,28.10
2015,07,19,13,29,28.20
2015,07,19,13,30,28.10
2015,07,19,13,31,28.10
2015,07,19,13,32,28.10
2015,07,19,13,33,28.10
2015,07,19,13,34,28.10
2015,07,19,13,35,28.10
2015,07,19,13,36,28.20
2015,07,19,13,37,28.40
2015,07,19,13,38,28.50
2015,07,19,13,39,28.50
2015,07,19,13,40,28.60
2015,07,19,13,41,28.60
2015,07,19,13,42,28.60
2015,07,19,13,43,28.70
2015,07,19,13,44,28.70
2015,07,19,13,45,28.70
2015,07,19,13,46,28.60
2015,07,19,13,47,28.60
2015,07,19,13,48,28.60
2015,07,19,13,49,28.60
2015,07,19,13,50,28.60
2015,07,19,13,51,28.60
2015,07,19,13,52,28.60
2015,07,19,13,53,28.60
2015,07,19,13,54,28.60
2015,07,19,13,55,28.70
2015,07,19,13,56,28.80
2015,07,19,13,57,28.80
2015,07,19,13,58,28.90
2015,07,19,13,59,29.00
2015,07,19,14,00,29.10
2015,07,19,14,01,29.20
2015,07,19,14,02,29.20
2015,07,19,14,03,29.30
2015,07,19,14,04,29.20
2015,07,19,14,05,29.10
2015,07,19,14,06,29.10
2015,07,19,14,07,29.00
2015,07,19,14,08,28.90
2015,07,19,14,09,28.90
2015,07,19,14,10,28.90
2015,07,19,14,11,28.90
2015,07,19,14,12,28.90
2015,07,19,14,13,29.00
2015,07,19,14,14,29.00
2015,07,19,14,15,29.10
2015,07,19,14,16,29.10
2015,07,19,14,17,29.20
2015,07,19,14,18,29.10
2015,07,19,14,19,29.10
2015,07,19,14,20,29.20
2015,07,19,14,21,29.20
2015,07,19,14,22,29.20
2015,07,19,14,23,29.20
2015,07,19,14,24,29.10
2015,07,19,14,25,29.10
2015,07,19,14,26,29.10
2015,07,19,14,27,29.20
2015,07,19,14,28,29.20
2015,07,19,14,29,29.20
2015,07,19,14,30,29.30
2015,07,19,14,31,29.30
2015,07,19,14,32,29.30
2015,07,19,14,33,29.30
2015,07,19,14,34,29.30
2015,07,19,14,35,29.30
2015,07,19,14,36,29.40
2015,07,19,14,37,29.40
2015,07,19,14,38,29.50
2015,07,19,14,39,29.50
2015,07,19,14,40,29.60
2015,07,19,14,41,29.70
2015,07,19,14,42,29.70
2015,07,19,14,43,29.70
2015,07,19,14,44,29.70
2015,07,19,14,45,29.70
2015,07,19,14,46,29.80
2015,07,19,14,47,29.80
2015,07,19,14,48,29.80
2015,07,19,14,49,29.90
2015,07,19,14,50,29.90
2015,07,19,14,51,30.00
2015,07,19,14,52,30.10
2015,07,19,14,53,30.20
2015,07,19,14,54,30.20
2015,07,19,14,55,30.30
2015,07,19,14,56,30.40
2015,07,19,14,57,30.40
2015,07,19,14,58,30.30
2015,07,19,14,59,30.30
2015,07,19,15,00,30.30
2015,07,19,15,01,30.20
2015,07,19,15,02,30.20
2015,07,19,15,03,30.20
2015,07,19,15,04,30.30
2015,07,19,15,05,30.30
2015,07,19,15,06,30.30
2015,07,19,15,07,30.20
2015,07,19,15,08,30.20
2015,07,19,15,09,30.20
2015,07,19,15,10,30.20
2015,07,19,15,11,30.20
2015,07,19,15,12,30.20
2015,07,19,15,13,30.30
2015,07,19,15,14,30.30
2015,07,19,15,15,30.40
2015,07,19,15,16,30.50
2015,07,19,15,17,30.60
2015,07,19,15,18,30.60
2015,07,19,15,19,30.70
2015,07,19,15,20,30.60
2015,07,19,15,21,30.60
2015,07,19,15,22,30.60
2015,07,19,15,23,30.60
2015,07,19,15,24,30.50
2015,07,19,15,25,30.50
2015,07,19,15,26,30.40
2015,07,19,15,27,30.40
2015,07,19,15,28,30.50
2015,07,19,15,29,30.50
2015,07,19,15,30,30.40
2015,07,19,15,31,30.40
2015,07,19,15,32,30.40
2015,07,19,15,33,30.40
2015,07,19,15,34,30.40
2015,07,19,15,35,30.40
2015,07,19,15,36,30.40
2015,07,19,15,37,30.40
2015,07,19,15,38,30.30
2015,07,19,15,39,30.20
2015,07,19,15,40,30.20
2015,07,19,15,41,30.20
2015,07,19,15,42,30.10
2015,07,19,15,43,30.10
2015,07,19,15,44,30.10
2015,07,19,15,45,30.10
2015,07,19,15,46,30.10
2015,07,19,15,47,30.10
2015,07,19,15,48,30.10
2015,07,19,15,49,30.10
2015,07,19,15,50,30.00
2015,07,19,15,51,30.00
2015,07,19,15,52,29.90
2015,07,19,15,53,29.90
2015,07,19,15,54,29.90
2015,07,19,15,55,29.80
2015,07,19,15,56,29.80
2015,07,19,15,57,29.80
2015,07,19,15,58,29.80
2015,07,19,15,59,29.80
2015,07,19,16,00,29.80
2015,07,19,16,01,29.80
2015,07,19,16,02,29.80
2015,07,19,16,03,29.80
2015,07,19,16,04,29.80
2015,07,19,16,05,29.80
2015,07,19,16,06,29.80
2015,07,19,16,07,29.70
2015,07,19,16,08,29.70
2015,07,19,16,09,29.80
2015,07,19,16,10,29.80
2015,07,19,16,11,29.80
2015,07,19,16,12,29.80
2015,07,19,16,13,29.90
2015,07,19,16,14,29.90
2015,07,19,16,15,30.00
2015,07,19,16,16,30.00
2015,07,19,16,17,30.00
2015,07,19,16,18,30.00
2015,07,19,16,19,30.00
2015,07,19,16,20,30.10
2015,07,19,16,21,30.10
2015,07,19,16,22,30.10
2015,07,19,16,23,30.10
2015,07,19,16,24,30.10
2015,07,19,16,25,30.10
2015,07,19,16,26,30.20
2015,07,19,16,27,30.30
2015,07,19,16,28,30.30
2015,07,19,16,29,30.40
2015,07,19,16,30,30.50
2015,07,19,16,31,30.60
2015,07,19,16,32,30.70
2015,07,19,16,33,30.70
2015,07,19,16,34,30.80
2015,07,19,16,35,30.80
2015,07,19,16,36,30.90
2015,07,19,16,37,30.90
2015,07,19,16,38,30.90
2015,07,19,16,39,30.80
2015,07,19,16,40,30.80
2015,07,19,16,41,30.80
2015,07,19,16,42,30.80
2015,07,19,16,43,30.80
2015,07,19,16,44,30.80
2015,07,19,16,45,30.90
2015,07,19,16,46,30.90
2015,07,19,16,47,30.90
2015,07,19,16,48,30.90
2015,07,19,16,49,30.80
2015,07,19,16,50,30.80
2015,07,19,16,51,30.70
2015,07,19,16,52,30.70
2015,07,19,16,53,30.70
2015,07,19,16,54,30.60
2015,07,19,16,55,30.60
2015,07,19,16,56,30.60
2015,07,19,16,57,30.60
2015,07,19,16,58,30.50
2015,07,19,16,59,30.50
2015,07,19,17,00,30.50
2015,07,19,17,01,30.50
2015,07,19,17,02,30.50
2015,07,19,17,03,30.50
2015,07,19,17,04,30.50
2015,07,19,17,05,30.50
2015,07,19,17,06,30.50
2015,07,19,17,07,30.60
2015,07,19,17,08,30.60
2015,07,19,17,09,30.60
2015,07,19,17,10,30.70
2015,07,19,17,11,30.70
2015,07,19,17,12,30.70
2015,07,19,17,13,30.70
2015,07,19,17,14,30.70
2015,07,19,17,15,30.70
2015,07,19,17,16,30.70
2015,07,19,17,17,30.70
2015,07,19,17,18,30.70
2015,07,19,17,19,30.60